ABS-2A (MONGOLSAT-1)    
1 41588U 16038A   19265.85813212 -.00000093  00000-0  00000+0 0  9999
2 41588   0.0153 194.7950 0002108 256.4293 293.8590  1.00271497 12048
EUTELSAT 117 WEST B     
1 41589U 16038B   19266.12499705 -.00000022  00000-0  00000+0 0  9990
2 41589   0.0409  15.7657 0000395  94.3643 179.5671  1.00272313 12041
FALCON 9 R/B            
1 41590U 16038C   19264.77862653 -.00000010  00000-0 -22563-3 0  9997
2 41590  24.2764  85.8823 8199956 192.2434 113.8903  1.18355998 14067